Stations météo

réclame
Mon MeteoGroup
Koksijde, Belgique (6400): Température de l'air & dewpoint: 17.09.2017 23:00:00 - 23.09.2017 23:00:00 (CEST)Koksijde, Belgique (6400): Vitesse du vent & gusts: 17.09.2017 23:00:00 - 23.09.2017 23:00:00 (CEST)Koksijde, Belgique (6400): Direction du vent: 17.09.2017 23:00:00 - 23.09.2017 23:00:00 (CEST)Koksijde, Belgique (6400): reduced air pressure: 17.09.2017 23:00:00 - 23.09.2017 23:00:00 (CEST)Koksijde, Belgique (6400): visibility: 17.09.2017 23:00:00 - 23.09.2017 23:00:00 (CEST)
Date & Time tt [°C] td [°C] ff [km/h] ff [knt] fx [km/h] fx [knt] dd ppp [hPa] vv [km]
23.09.2017 23:00:00 11,5 10,5 4 2 - - N 1022,7 6
23.09.2017 22:00:00 12,1 11,1 7 4 11 6 ENE 1022,7 6
23.09.2017 21:00:00 13,3 12,1 11 6 11 6 ENE 1022,3 7
23.09.2017 20:00:00 13,7 12,6 7 4 - - NNE 1022,5 7
23.09.2017 19:00:00 15,3 12,5 7 4 14 8 NE 1022,3 10
23.09.2017 18:00:00 15,5 11,9 11 6 22 12 NNE 1022,5 16
23.09.2017 17:00:00 17,2 12,1 14 8 - - NNE 1022,7 14
23.09.2017 16:00:00 16,1 11,9 9 5 14 8 NNE 1023,2 10
23.09.2017 15:00:00 17,5 9,4 4 2 14 8 N 1023,7 20
23.09.2017 14:00:00 16,7 10,8 7 4 - - SSW 1024,0 16
23.09.2017 13:00:00 16,8 11,7 4 2 11 6 N 1024,4 17
23.09.2017 12:00:00 15,3 11,4 7 4 14 8 SSE 1024,5 15
23.09.2017 11:00:00 13,6 10,6 11 6 - - S 1024,7 19
23.09.2017 10:00:00 13,4 10,4 8 4 11 6 SSE 1024,5 10
23.09.2017 09:00:00 9,4 9,2 4 2 7 4 N 1024,4 8
23.09.2017 08:00:00 6,8 6,7 4 2 - - N 1024,4 9
23.09.2017 07:00:00 7,0 7,0 0 0 4 2 N 1024,2 4,6
23.09.2017 06:00:00 7,6 7,6 4 2 4 2 N 1024,0 6
23.09.2017 05:00:00 8,1 7,8 2 1 - - - 1024,0 10
23.09.2017 04:00:00 7,9 7,9 4 2 4 2 N 1024,4 8
23.09.2017 03:00:00 8,3 8,2 4 2 4 2 N 1024,4 10
23.09.2017 02:00:00 8,5 8,3 4 2 - - N 1024,4 9
23.09.2017 01:00:00 8,9 8,6 4 2 4 2 N 1024,0 14
23.09.2017 00:00:00 9,3 8,8 4 2 4 2 N 1024,0 7
22.09.2017 23:00:00 9,5 8,9 4 2 - - N 1024,0 13
22.09.2017 22:00:00 10,3 9,7 4 2 7 4 N 1023,8 20
22.09.2017 21:00:00 11,3 10,1 4 2 4 2 N 1023,6 20
22.09.2017 20:00:00 13,4 10,0 4 2 - - N 1023,1 20
22.09.2017 19:00:00 15,0 10,2 4 2 14 8 N 1022,8 20
22.09.2017 18:00:00 16,0 10,0 7 4 18 10 NNW 1022,3 20
22.09.2017 17:00:00 16,2 10,4 11 6 - - NNW 1022,2 20
22.09.2017 16:00:00 16,5 11,3 11 6 22 12 NW 1022,2 30
22.09.2017 15:00:00 16,5 11,6 11 6 22 12 NNW 1022,1 30
22.09.2017 14:00:00 16,7 12,1 11 6 - - NNW 1022,0 10
22.09.2017 13:00:00 16,1 12,7 11 6 22 12 NNW 1021,7 30
22.09.2017 12:00:00 16,0 12,5 11 6 22 12 NW 1021,6 30
22.09.2017 11:00:00 15,6 13,3 11 6 - - NW 1021,3 20
22.09.2017 10:00:00 15,1 13,6 11 6 18 10 NW 1021,0 20
22.09.2017 09:00:00 14,5 13,8 7 4 14 8 NNW 1020,2 7
22.09.2017 08:00:00 13,3 13,3 4 2 - - N 1020,1 7
22.09.2017 07:00:00 13,3 13,3 4 2 7 4 N 1019,5 5
22.09.2017 06:00:00 13,3 13,3 7 4 7 4 SSW 1019,3 5
22.09.2017 05:00:00 13,5 13,5 4 2 - - N 1019,2 6
22.09.2017 04:00:00 13,5 13,5 8 4 7 4 S 1019,2 9
22.09.2017 03:00:00 13,6 13,1 4 2 11 6 - 1019,2 10
22.09.2017 02:00:00 13,3 12,3 4 2 - - N 1019,2 13
22.09.2017 01:00:00 13,1 11,7 4 2 11 6 N 1018,7 16
22.09.2017 00:00:00 13,5 11,1 4 2 7 4 N 1018,7 18
21.09.2017 23:00:00 13,5 11,3 4 2 - - N 1018,6 17
21.09.2017 22:00:00 12,8 11,5 4 2 4 2 N 1018,6 19
21.09.2017 21:00:00 14,5 11,3 0 0 11 6 N 1018,5 20
21.09.2017 20:00:00 16,0 11,4 7 4 - - S 1018,1 20
21.09.2017 19:00:00 17,2 11,5 7 4 22 12 SSW 1017,7 20
21.09.2017 18:00:00 18,5 10,7 14 8 29 16 S 1017,3 20
21.09.2017 17:00:00 18,7 10,7 18 10 - - S 1017,3 20
21.09.2017 16:00:00 18,7 10,0 22 12 32 18 SSW 1017,5 20
21.09.2017 15:00:00 18,5 10,0 22 12 32 18 S 1017,7 20
21.09.2017 14:00:00 18,1 10,6 22 12 - - S 1018,2 20
21.09.2017 13:00:00 17,2 11,0 22 12 29 16 S 1018,5 10
21.09.2017 12:00:00 16,0 11,2 18 10 29 16 S 1018,7 20
21.09.2017 11:00:00 13,6 10,6 11 6 - - S 1018,8 20
21.09.2017 10:00:00 12,1 10,1 11 6 18 10 S 1018,8 15
21.09.2017 09:00:00 10,6 9,4 11 6 14 8 SSE 1018,7 10
21.09.2017 08:00:00 9,8 8,9 11 6 - - S 1018,6 8
21.09.2017 07:00:00 9,5 8,8 7 4 11 6 SSE 1018,6 9
21.09.2017 06:00:00 9,6 8,9 7 4 11 6 S 1018,6 13
21.09.2017 05:00:00 9,8 9,1 7 4 - - S 1018,8 13
21.09.2017 04:00:00 9,6 9,0 4 2 11 6 N 1019,2 13
21.09.2017 03:00:00 10,6 9,7 4 2 11 6 N 1019,3 16
21.09.2017 02:00:00 10,9 9,8 7 4 - - SSE 1019,5 18
21.09.2017 01:00:00 11,5 10,2 4 2 7 4 N 1019,5 17
21.09.2017 00:00:00 12,1 10,5 4 2 11 6 N 1019,5 19
20.09.2017 23:00:00 12,5 11,1 7 4 - - SSE 1019,6 19
20.09.2017 22:00:00 13,3 12,0 7 4 11 6 SSE 1019,7 14
20.09.2017 21:00:00 14,0 12,4 7 4 11 6 S 1020,0 20
20.09.2017 20:00:00 14,5 12,9 7 4 - - S 1019,7 20
20.09.2017 19:00:00 14,7 13,1 11 6 29 16 SW 1019,7 20
20.09.2017 18:00:00 15,5 12,7 22 12 32 18 SW 1020,0 10
20.09.2017 17:00:00 16,1 12,7 18 10 - - SSW 1020,2 20
20.09.2017 16:00:00 15,0 11,6 14 8 32 18 SW 1020,6 20
20.09.2017 15:00:00 16,3 12,0 18 10 25 14 SW 1020,6 20
20.09.2017 14:00:00 16,2 11,8 18 10 - - SW 1020,7 20
20.09.2017 13:00:00 16,7 13,2 14 8 25 14 SSW 1020,8 20
20.09.2017 12:00:00 15,7 13,0 11 6 18 10 WSW 1021,2 20
20.09.2017 11:00:00 13,7 12,5 11 6 - - SW 1021,5 13
20.09.2017 10:00:00 11,8 11,3 11 6 14 8 SW 1021,3 10
20.09.2017 09:00:00 9,5 9,4 7 4 11 6 SW 1021,2 7
20.09.2017 08:00:00 7,9 7,9 7 4 - - SW 1021,1 6
20.09.2017 07:00:00 7,5 7,5 7 4 7 4 N 1021,1 7
20.09.2017 06:00:00 7,4 7,4 7 4 7 4 SW 1021,1 5
20.09.2017 05:00:00 7,9 7,9 4 2 - - N 1021,3 6
20.09.2017 04:00:00 8,4 8,4 4 2 7 4 N 1021,6 7
20.09.2017 03:00:00 9,3 9,1 7 4 11 6 SW 1022,0 6
20.09.2017 02:00:00 9,4 9,3 7 4 - - SSW 1022,2 7
20.09.2017 01:00:00 10,5 10,1 8 4 11 6 SSW 1022,2 9
20.09.2017 00:00:00 11,4 11,0 4 2 11 6 N 1022,3 10
19.09.2017 23:00:00 11,1 11,0 9 5 - - SW 1022,5 10
19.09.2017 22:00:00 12,3 10,2 7 4 14 8 WNW 1022,6 15
19.09.2017 21:00:00 12,3 11,9 4 2 11 6 N 1022,3 20
19.09.2017 20:00:00 13,2 12,0 9 5 - - NNW 1022,0 10
19.09.2017 19:00:00 13,6 12,5 13 7 32 18 NNW 1021,7 6
19.09.2017 18:00:00 13,0 12,4 22 12 32 18 NW 1021,6 15
19.09.2017 17:00:00 13,5 13,2 24 13 - - NW 1021,2 10
19.09.2017 16:00:00 14,3 12,0 18 10 32 18 W 1021,1 10
19.09.2017 15:00:00 15,8 11,0 16 9 25 14 NW 1020,7 10
19.09.2017 14:00:00 15,7 11,4 14 8 - - NNW 1020,7 20
19.09.2017 13:00:00 15,4 12,0 11 6 29 16 N 1020,2 20
19.09.2017 12:00:00 14,6 11,5 22 12 32 18 NNW 1020,2 20
19.09.2017 11:00:00 13,1 12,0 14 8 - - N 1020,0 5
19.09.2017 10:00:00 13,7 12,2 14 8 29 16 NNW 1019,1 20
19.09.2017 09:00:00 12,5 12,0 11 6 22 12 NNW 1018,6 3,7
19.09.2017 08:00:00 12,6 10,5 14 8 - - N 1018,2 8
19.09.2017 07:00:00 13,0 10,6 18 10 32 18 NW 1017,8 20
19.09.2017 06:00:00 13,0 10,3 18 10 32 18 NW 1017,7 20
19.09.2017 05:00:00 12,6 9,8 22 12 - - NW 1017,5 20
19.09.2017 04:00:00 12,9 9,7 21 11 29 16 NW 1017,3 10
19.09.2017 03:00:00 13,0 10,1 18 10 32 18 NW 1017,3 20
19.09.2017 02:00:00 12,5 10,5 22 12 - - NNW 1017,3 20
19.09.2017 01:00:00 13,0 10,8 14 8 25 14 NW 1017,2 20
19.09.2017 00:00:00 12,9 10,2 16 9 25 14 NW 1017,2 10
18.09.2017 23:00:00 12,3 10,4 14 8 - - N 1017,3 20
18.09.2017 22:00:00 13,4 10,3 18 10 32 18 NNW 1017,2 20
18.09.2017 21:00:00 12,6 11,4 11 6 25 14 NNW 1017,0 17
18.09.2017 20:00:00 11,8 10,8 18 10 - - NNW 1016,6 5
18.09.2017 19:00:00 13,2 10,5 14 8 29 16 NNW 1016,2 20
18.09.2017 18:00:00 12,5 11,1 14 8 36 19 NNW 1015,8 20
18.09.2017 17:00:00 13,5 10,8 18 10 - - NW 1016,0 20
18.09.2017 16:00:00 12,3 11,0 15 8 43 23 N 1016,0 5
18.09.2017 15:00:00 12,1 11,6 8 4 29 16 SW 1015,6 10
18.09.2017 14:00:00 11,5 11,4 11 6 - - W 1015,6 5
18.09.2017 13:00:00 10,3 10,3 7 4 11 6 WSW 1015,7 6
18.09.2017 12:00:00 10,2 10,2 4 2 18 10 - 1015,5 7
18.09.2017 11:00:00 11,3 11,3 9 5 - - NE 1015,2 5
18.09.2017 10:00:00 11,3 11,3 8 4 22 12 NW 1014,7 10
18.09.2017 09:00:00 11,0 11,0 7 4 14 8 SW 1014,3 20
18.09.2017 08:00:00 9,8 9,8 7 4 - - SW 1014,2 20
18.09.2017 07:00:00 10,5 10,3 7 4 11 6 SW 1014,2 20
18.09.2017 06:00:00 10,6 10,6 11 6 14 8 WSW 1014,2 20
18.09.2017 05:00:00 10,3 10,3 9 5 - - SW 1014,1 10
18.09.2017 04:00:00 9,9 9,9 4 2 7 4 N 1014,2 11
18.09.2017 03:00:00 10,6 10,5 7 4 14 8 WSW 1014,5 20
18.09.2017 02:00:00 10,6 10,6 5 3 - - S 1014,5 1,5
18.09.2017 01:00:00 10,9 10,2 11 6 22 12 SW 1014,2 9
18.09.2017 00:00:00 11,3 11,1 7 4 18 10 SSW 1014,2 20
17.09.2017 23:00:00 12,6 9,7 14 8 - - W 1014,1 20

tt = Température de l'air
td = dewpoint
ff = Vitesse du vent
fx = gusts
dd = Direction du vent
ppp = reduced air pressure
vv = visibility

stations d'obs. à proximité